Tracking 22780 objects as of 11-Apr-2021
HD Live streaming from Space Station
objects crossing your sky now

EXPLORER 47 (IMP-7)

Track EXPLORER 47 (IMP-7) now!
EXPLORER 47 (IMP-7) is classified as:


NORAD ID: 6197
Int'l Code: 1972-073A
Perigee: 175,968.1 km
Apogee: 265,541.6 km
Inclination: 35.7 °
Period: 17,953.9 minutes
Semi major axis: 227125 km
RCS: Unknown
Launch date: September 23, 1972
Source: United States (US)
Launch site: AIR FORCE EASTERN TEST RANGE (AFETR)
aabbcc
Your satellite tracking list
Your tracking list is empty




NASA's NSSDC Master Catalog

Two Line Element Set (TLE):
1  6197U 72073A   20306.91620965 -.00001306 +00000-0 +00000-0 0  9992
2  6197 035.7256 297.2578 1971892 194.9062 355.7204 00.08020531002255
Source of the keplerian elements: AFSPC